Location: O'Brien
(30.0517°N, 82.9900°W)
Time: 08:49:54
(UTC-04:00)

Envisat - Visible Passes

Search period start: 16 October 2019 00:00
Search period end: 26 October 2019 00:00
Orbit: 764 x 766 km, 98.1° (Epoch: 16 October)

Date Brightness Start Highest point End Pass type
(mag) Time Alt. Az. Time Alt. Az. Time Alt. Az.
16 Oct 3.4 19:16:50 10° SE 19:21:36 42° ENE 19:26:22 10° N visible
16 Oct 5.9 20:57:40 10° SW 21:00:43 16° W 21:03:47 10° WNW visible
17 Oct 4.4 20:19:03 10° SSW 20:23:47 40° W 20:28:32 10° NNW visible
18 Oct 2.9 19:41:56 10° SSE 19:47:00 82° ENE 19:52:06 10° N visible
19 Oct 5.5 20:45:37 10° SW 20:49:23 21° W 20:53:11 10° NW visible
20 Oct 3.8 20:07:34 10° S 20:12:30 52° W 20:17:27 10° NNW visible
21 Oct 3.0 19:30:47 10° SSE 19:35:46 62° ENE 19:40:47 10° N visible
21 Oct 6.3 21:14:10 10° WSW 21:15:04 10° W 21:15:59 10° W visible
22 Oct 5.1 20:33:48 10° SSW 20:38:04 27° W 20:42:22 10° NW visible
23 Oct 6.4 07:11:05 10° ENE 07:13:37 14° E 07:16:08 10° SE visible
23 Oct 3.3 19:56:12 10° S 20:01:14 69° WSW 20:06:18 10° NNW visible
24 Oct 3.2 19:19:43 10° SSE 19:24:33 47° ENE 19:29:25 10° N visible
24 Oct 6.0 21:01:03 10° SW 21:03:43 14° W 21:06:25 10° WNW visible
25 Oct 4.6 20:22:09 10° SSW 20:26:46 36° W 20:31:25 10° NNW visible
